Simultaneous Nadir Overpasses (SNOs) Predictions

Prediction of SNOs between LANDSAT-8 and NOAA-19 Satellite Orbit:

Table of predicted SNOs for the next 14.0 days since TLE Epoch: 10/21/2017
Index Date (LANDSAT-8) Time (LANDSAT-8) Lat,Lon (LANDSAT-8) SZA (LANDSAT-8 ) Date (NOAA-19) Time (NOAA-19) Lat,Lon (NOAA-19) SZA (NOAA-19 ) Distance(km) Time Diff (sec)
1 10/21/2017 04:28:15 76.71, 123.52 87.80 10/21/2017 04:27:50 76.73, 123.58 87.81 2.16 25
2 10/21/2017 05:17:43 -76.68, -68.97 92.23 10/21/2017 05:18:51 -76.70, -69.04 92.20 2.62 68
3 10/23/2017 10:01:59 -76.76,-139.76 91.36 10/23/2017 10:01:35 -76.73,-139.79 91.40 3.69 24
4 10/23/2017 10:51:26 76.70, 27.67 88.59 10/23/2017 10:52:34 76.67, 27.68 88.58 2.96 68
5 10/25/2017 15:35:43 76.73, -43.30 89.38 10/25/2017 15:35:19 76.73, -43.17 89.39 3.46 24
6 10/25/2017 16:25:11 -76.70, 124.23 90.64 10/25/2017 16:26:19 -76.70, 124.19 90.63 1.08 68
7 10/27/2017 21:09:27 -76.77, 53.42 89.81 10/27/2017 21:09:03 -76.74, 53.42 89.85 3.47 24
8 10/27/2017 21:58:54 76.71,-139.17 90.13 10/27/2017 22:00:03 76.68,-139.09 90.13 3.27 69
9 10/30/2017 02:43:10 76.78, 150.00 90.94 10/30/2017 02:42:48 76.75, 150.03 90.91 3.64 22
10 10/30/2017 03:32:38 -76.71, -42.61 89.14 10/30/2017 03:33:46 -76.72, -42.62 89.10 1.95 68
11 11/01/2017 08:16:54 -76.77,-113.45 88.35 11/01/2017 08:16:30 -76.77,-113.42 88.36 0.95 24
12 11/01/2017 09:06:21 76.70, 53.95 91.58 11/01/2017 09:07:31 76.71, 54.08 91.61 3.39 70
13 11/03/2017 13:50:37 76.77, -16.90 92.35 11/03/2017 13:50:16 76.77, -16.81 92.36 2.34 21




NCC Satellite Simultaneous Nadir Overpasses (SNOs) Prediction Service
